Crookston, MN

8:50 AM CDT on May 25, 2017 (GMT -0500)
Crookston Municipal-Kirkwood

Weather History for KCKN - February, 2013

Change the Weather History Date:

Monday, February 11, 2013

  Actual Average Record
Temperature  
Mean Temperature 18 °F -  
Max Temperature 24 °F 20 °F 48 °F (2002)
Min Temperature 12 °F 2 °F -16 °F (1997)
Degree Days  
Heating Degree Days 47    
Moisture  
Dew Point 14 °F    
Average Humidity 90    
Maximum Humidity 100    
Minimum Humidity 79    
Precipitation  
Precipitation 0.00 in - - ()
Sea Level Pressure  
Sea Level Pressure 29.89 in    
Wind  
Wind Speed 20 mph (NW)    
Max Wind Speed 30 mph    
Max Gust Speed 32 mph    
Visibility 5 miles    
Events Snow    
Averages and records for this station are not official NWS values.
T = Trace of Precipitation, MM = Missing Value Source: NWS Daily Summary

Daily Weather History Graph

Daily Weather History Graph

Search for Another Location

Airport or City:

Trip Planner

Search our weather history database for the weather conditions in past years. The results will help you decide how hot, cold, wet, or windy it might be!

Date:

Astronomy

Feb. 11, 2013 Rise Set
Actual Time 7:38 AM CST 5:43 PM CST
Civil Twilight 7:06 AM CST 6:15 PM CST
Nautical Twilight 6:30 AM CST 6:52 PM CST
Astronomical Twilight 5:54 AM CST 7:28 PM CST
Moon 7:53 AM CST (2/11) 7:54 PM CST (2/11)
Length of Visible Light 11h 09m
Length of Day
10h 04m
Waxing Crescent, 3% of the Moon is Illuminated
Feb 11
Waxing Crescent
Feb 17
First Quarter
Feb 25
Full
Mar 4
Last Quarter
Mar 11
New

Hourly Weather History & Observations

Time (CST) Temp. Windchill Dew Point Humidity Pressure Visibility Wind Dir Wind Speed Gust Speed Precip Events Conditions
12:15 AM 24.8 °F 10.0 °F 23.0 °F 93% 29.71 in 1.2 mi North 21.9 mph - N/A Snow Light Snow
12:34 AM 23.0 °F 6.9 °F 21.2 °F 93% 29.72 in 1.0 mi North 24.2 mph 29.9 mph N/A Snow Light Snow
12:55 AM 23.0 °F 6.6 °F 21.2 °F 93% 29.72 in 1.5 mi North 25.3 mph - N/A Snow Light Snow
1:15 AM 23.0 °F 7.2 °F 21.2 °F 93% 29.73 in 1.8 mi North 23.0 mph - N/A Snow Light Snow
1:34 AM 23.0 °F 7.2 °F 21.2 °F 93% 29.73 in 1.5 mi North 23.0 mph - N/A Snow Light Snow
1:55 AM 21.2 °F 4.2 °F 21.2 °F 100% 29.73 in 1.5 mi North 25.3 mph 31.1 mph N/A Snow Light Snow
2:15 AM 21.2 °F 4.5 °F 21.2 °F 100% 29.74 in 2.0 mi North 24.2 mph - N/A Snow Light Snow
2:34 AM 21.2 °F 4.2 °F 21.2 °F 100% 29.75 in 2.5 mi North 25.3 mph 31.1 mph N/A Snow Light Snow
2:55 AM 21.2 °F 4.2 °F 19.4 °F 93% 29.76 in 2.0 mi North 25.3 mph - N/A Snow Light Snow
3:14 AM 21.2 °F 4.2 °F 19.4 °F 93% 29.76 in 2.0 mi North 25.3 mph 28.8 mph N/A Snow Light Snow
3:35 AM 21.2 °F 4.5 °F 19.4 °F 93% 29.77 in 3.0 mi North 24.2 mph - N/A Snow Light Snow
3:55 AM 21.2 °F 4.9 °F 19.4 °F 93% 29.78 in 7.0 mi North 23.0 mph - N/A   Clear
4:14 AM 21.2 °F 4.2 °F 19.4 °F 93% 29.78 in 5.0 mi North 25.3 mph - N/A   Clear
4:35 AM 21.2 °F 5.2 °F 19.4 °F 93% 29.79 in 7.0 mi North 21.9 mph - N/A   Clear
4:55 AM 21.2 °F 4.5 °F 19.4 °F 93% 29.80 in 7.0 mi North 24.2 mph - N/A   Clear
5:14 AM 17.6 °F 0.1 °F 15.8 °F 93% 29.81 in 2.5 mi NNW 23.0 mph 29.9 mph N/A   Mist
5:35 AM 17.6 °F -1.0 °F 15.8 °F 93% 29.81 in 2.5 mi North 26.5 mph 29.9 mph N/A   Mist
5:55 AM 17.6 °F -1.3 °F 15.8 °F 93% 29.82 in 2.0 mi North 27.6 mph - N/A   Mostly Cloudy
6:14 AM 17.6 °F -0.3 °F 15.8 °F 93% 29.83 in 2.0 mi NNW 24.2 mph 29.9 mph N/A   Mostly Cloudy
6:35 AM 17.6 °F -1.9 °F 15.8 °F 93% 29.84 in 1.8 mi NNW 29.9 mph - N/A   Mostly Cloudy
6:54 AM 15.8 °F -2.7 °F 14.0 °F 93% 29.85 in 2.5 mi North 24.2 mph 31.1 mph N/A   Mostly Cloudy
7:14 AM 15.8 °F -3.7 °F 14.0 °F 93% 29.86 in 2.5 mi North 27.6 mph - N/A   Overcast
7:35 AM 15.8 °F -1.5 °F 12.2 °F 86% 29.87 in 2.5 mi NNW 20.7 mph 32.2 mph N/A   Overcast
7:55 AM 14.0 °F -5.5 °F 12.2 °F 93% 29.88 in 1.5 mi NNW 25.3 mph 31.1 mph N/A   Overcast
8:14 AM 14.0 °F -5.1 °F 12.2 °F 93% 29.88 in 1.5 mi NNW 24.2 mph 29.9 mph N/A Snow Light Snow
8:35 AM 12.2 °F -8.2 °F 10.4 °F 92% 29.89 in 0.8 mi NNW 26.5 mph 31.1 mph N/A Snow Light Snow
8:55 AM 12.2 °F -6.7 °F 10.4 °F 92% 29.90 in 1.0 mi NNW 21.9 mph - N/A Snow Light Snow
9:14 AM 12.2 °F -6.3 °F 10.4 °F 92% 29.91 in 1.5 mi NNW 20.7 mph 28.8 mph N/A Snow Light Snow
9:35 AM 12.2 °F -6.7 °F 8.6 °F 85% 29.92 in 1.2 mi NNW 21.9 mph - N/A Snow Light Snow
9:54 AM 12.2 °F -6.7 °F 8.6 °F 85% 29.92 in 1.0 mi NNW 21.9 mph 28.8 mph N/A Snow Light Snow
10:14 AM 12.2 °F -7.1 °F 10.4 °F 92% 29.93 in 1.2 mi NNW 23.0 mph - N/A Snow Light Snow
10:35 AM 12.2 °F -6.7 °F 10.4 °F 92% 29.93 in 1.8 mi NNW 21.9 mph - N/A Snow Light Snow
10:54 AM 12.2 °F -6.3 °F 10.4 °F 92% 29.94 in 1.5 mi NNW 20.7 mph 26.5 mph N/A Snow Light Snow
11:15 AM 14.0 °F -3.9 °F 10.4 °F 86% 29.95 in 2.0 mi NNW 20.7 mph - N/A Snow Light Snow
11:35 AM 14.0 °F -2.5 °F 10.4 °F 86% 29.96 in 3.0 mi NNW 17.3 mph 24.2 mph N/A Snow Light Snow
11:54 AM 14.0 °F -4.3 °F 10.4 °F 86% 29.95 in 3.0 mi North 21.9 mph - N/A Snow Light Snow
12:15 PM 15.8 °F -0.2 °F 10.4 °F 79% 29.95 in 4.0 mi NNW 17.3 mph - N/A Snow Light Snow
12:35 PM 15.8 °F -0.6 °F 10.4 °F 79% 29.95 in 5.0 mi NNW 18.4 mph 21.9 mph N/A Snow Light Snow
12:54 PM 15.8 °F 0.3 °F 12.2 °F 86% 29.95 in 7.0 mi NNW 16.1 mph - N/A   Overcast
1:15 PM 15.8 °F 0.3 °F 12.2 °F 86% 29.95 in 10.0 mi NNW 16.1 mph - N/A   Mostly Cloudy
1:35 PM 15.8 °F 0.3 °F 12.2 °F 86% 29.96 in 10.0 mi NNW 16.1 mph - N/A   Mostly Cloudy
1:54 PM 15.8 °F 2.7 °F 12.2 °F 86% 29.96 in 10.0 mi NNW 11.5 mph - N/A   Mostly Cloudy
2:15 PM 15.8 °F 2.7 °F 12.2 °F 86% 29.96 in 10.0 mi NNW 11.5 mph - N/A   Mostly Cloudy
2:35 PM 17.6 °F 5.0 °F 12.2 °F 79% 29.96 in 10.0 mi NNW 11.5 mph - N/A   Mostly Cloudy
2:54 PM 17.6 °F 5.0 °F 14.0 °F 86% 29.96 in 10.0 mi NNW 11.5 mph - N/A   Scattered Clouds
3:15 PM 17.6 °F 6.4 °F 14.0 °F 86% 29.96 in 10.0 mi NNW 9.2 mph - N/A   Scattered Clouds
3:35 PM 17.6 °F 7.3 °F 15.8 °F 93% 29.96 in 2.0 mi NNW 8.1 mph - N/A Snow Light Snow
3:54 PM 17.6 °F 10.7 °F 15.8 °F 93% 29.96 in 3.0 mi NNW 4.6 mph - N/A   Scattered Clouds
4:54 PM 15.8 °F - 12.2 °F 86% 29.96 in 10.0 mi Calm Calm - N/A   Clear
5:15 PM 15.8 °F - 14.0 °F 93% 29.96 in 10.0 mi Calm Calm - N/A   Clear
5:35 PM 14.0 °F - 12.2 °F 93% 29.96 in 10.0 mi Calm Calm - N/A   Clear
5:54 PM 12.2 °F 6.1 °F 10.4 °F 92% 29.96 in 4.0 mi SSW 3.5 mph - N/A   Clear
6:15 PM 12.2 °F 6.1 °F 10.4 °F 92% 29.96 in 10.0 mi SW 3.5 mph - N/A   Scattered Clouds
6:34 PM 14.0 °F 6.5 °F 12.2 °F 93% 29.96 in 3.0 mi SW 4.6 mph - N/A   Mostly Cloudy
6:54 PM 12.2 °F 4.3 °F 10.4 °F 92% 29.96 in 10.0 mi SW 4.6 mph - N/A   Overcast
7:15 PM 12.2 °F 2.9 °F 10.4 °F 92% 29.96 in 10.0 mi WSW 5.8 mph - N/A   Overcast
7:34 PM 15.8 °F 4.2 °F 15.8 °F 100% 29.96 in 10.0 mi West 9.2 mph - N/A   Overcast
7:54 PM 17.6 °F 6.4 °F 15.8 °F 93% 29.96 in 10.0 mi West 9.2 mph - N/A   Overcast
8:15 PM 17.6 °F 6.4 °F 15.8 °F 93% 29.96 in 10.0 mi West 9.2 mph - N/A   Overcast
8:34 PM 17.6 °F 6.4 °F 14.0 °F 86% 29.96 in 10.0 mi West 9.2 mph - N/A   Overcast
8:54 PM 17.6 °F 7.3 °F 14.0 °F 86% 29.95 in 10.0 mi WSW 8.1 mph - N/A   Overcast
9:15 PM 17.6 °F 7.3 °F 12.2 °F 79% 29.95 in 10.0 mi WSW 8.1 mph - N/A   Overcast
9:34 PM 17.6 °F 6.4 °F 14.0 °F 86% 29.95 in 10.0 mi WSW 9.2 mph - N/A   Overcast
10:15 PM 17.6 °F 5.7 °F 12.2 °F 79% 29.94 in 10.0 mi WSW 10.4 mph - N/A   Overcast
10:34 PM 17.6 °F 6.4 °F 14.0 °F 86% 29.93 in 10.0 mi WSW 9.2 mph - N/A   Overcast
10:54 PM 17.6 °F 7.3 °F 14.0 °F 86% 29.92 in 10.0 mi SSW 8.1 mph - N/A   Overcast
11:15 PM 17.6 °F 5.7 °F 14.0 °F 86% 29.91 in 10.0 mi SSW 10.4 mph - N/A   Overcast
11:34 PM 17.6 °F 5.7 °F 14.0 °F 86% 29.90 in 10.0 mi SSW 10.4 mph - N/A   Overcast
11:54 PM 17.6 °F 3.7 °F 12.2 °F 79% 29.89 in 10.0 mi SSW 13.8 mph - N/A   Mostly Cloudy